Location: Austin
(30.3000°N, 97.7500°W)
Time: 22:25:27
(UTC-05:00)

Resurs 1-3 - Pass Details

Date: 05 September 2024
Orbit: 619 x 622 km, 97.7° (Epoch: 14 September)

Event Time Altitude Azimuth Distance (km) Brightness Sun altitude
Rises 20:46:19 0° 167° (SSE) 2,882 6.7 -13.1°
Reaches altitude 10° 20:48:29 10° 167° (SSE) 1,979 5.9 -13.6°
Maximum altitude 20:52:48 88° 84° (E) 625 3.5 -14.5°
Drops below altitude 10° 20:57:08 10° 349° (N) 1,989 6.5 -15.4°
Sets 20:59:20 0° 349° (N) 2,898 7.4 -15.8°
